This is the latest recevied weather packets stored in our database for station/object KB4RFE. If no packets are shown the sender has not sent any weather packets the latest 10 day(s).
| Time | Temp. | Humidity | Pressure | Rain* | Wind** | Luminosity | Snow |
|---|---|---|---|---|---|---|---|
| 1777496474 | 23.89° C | 82% | 1013 hPa | 0 mm | - | 499 W/m² | - |
| 1777496171 | 23.89° C | 82% | 1013.1 hPa | 0 mm | - | 524 W/m² | - |
| 1777495867 | 23.89° C | 82% | 1013.2 hPa | 0 mm | - | 554 W/m² | - |
| 1777495562 | 23.89° C | 83% | 1013.3 hPa | 0 mm | - | 581 W/m² | - |
| 1777495258 | 24.44° C | 82% | 1013.4 hPa | 0 mm | - | 609 W/m² | - |
| 1777494956 | 24.44° C | 81% | 1013.3 hPa | 0 mm | - | 531 W/m² | - |
| 1777494653 | 23.89° C | 83% | 1013.5 hPa | 0 mm | - | 654 W/m² | - |
| 1777494350 | 24.44° C | 81% | 1013.8 hPa | 0 mm | - | 700 W/m² | - |
| 1777494047 | 24.44° C | 80% | 1013.7 hPa | 0 mm | - | 682 W/m² | - |
| 1777493745 | 24.44° C | 81% | 1013.9 hPa | 0 mm | - | 678 W/m² | - |
| 1777493443 | 24.44° C | 80% | 1013.8 hPa | 0 mm | - | 708 W/m² | - |
| 1777493138 | 24.44° C | 80% | 1014.2 hPa | 0 mm | - | 698 W/m² | - |
| 1777492835 | 23.89° C | 82% | 1014.1 hPa | 0 mm | - | 607 W/m² | - |
| 1777492532 | 24.44° C | 82% | 1014.2 hPa | 0 mm | - | 628 W/m² | - |
| 1777492228 | 23.89° C | 82% | 1014.2 hPa | 0 mm | - | 748 W/m² | - |
| 1777491926 | 23.89° C | 82% | 1014.6 hPa | 0 mm | - | 844 W/m² | - |
| 1777491621 | 23.89° C | 83% | 1014.8 hPa | 0 mm | - | 376 W/m² | - |
| 1777491319 | 23.89° C | 82% | 1014.8 hPa | 0 mm | - | 358 W/m² | - |
| 1777491016 | 24.44° C | 80% | 1014.6 hPa | 0 mm | - | 282 W/m² | - |
| 1777490711 | 24.44° C | 80% | 1014.9 hPa | 0 mm | - | 299 W/m² | - |
| 1777490409 | 24.44° C | 80% | 1014.9 hPa | 0 mm | - | 209 W/m² | - |
| 1777490105 | 24.44° C | 79% | 1014.8 hPa | 0 mm | - | 359 W/m² | - |
| 1777489802 | 25° C | 79% | 1014.8 hPa | 0 mm | - | 797 W/m² | - |
| 1777489499 | 25° C | 79% | 1014.8 hPa | 0 mm | - | 604 W/m² | - |
| 1777489196 | 25° C | 79% | 1014.6 hPa | 0 mm | - | 615 W/m² | - |
* Rain latest hour (hover to see other rain measurements)
** Current wind speed in m/s (hover to see current wind gust speed)